User: anonymous   Login
Location: Unspecified
(0.0000°N, 0.0000°E)
Time: 15:17:49
(UTC+00:00)
Language:

ECAMSAT - Orbit

View from above orbital plane
View from above orbital plane
View from above satellite
View from above satellite

Ground track
Ground track

The orbit data is extracted from the following two-line orbital elements,

1 43019U 98067NG  18345.06336146  .00005334  00000-0  73732-4 0  9998
2 43019  51.6388 209.1430 0005590 114.0471 246.1107 15.58953299146127
Epoch (UTC): 11 December 2018 01:31:14
Eccentricity: 0.0005590
inclination: 51.6388°
perigee height: 387 km
apogee height: 394 km
right ascension of ascending node: 209.1430°
argument of perigee: 114.0471°
revolutions per day: 15.58953299
mean anomaly at epoch: 246.1107°
orbit number at epoch: 14612

The dashed part of the orbit path shows where the satellite is in the earth's shadow,  

DLR